User: anonymous   Login
Location: Quebec
(46.8000°N, 71.2500°W)
Time: 21:17:51
(UTC-04:00)
Language:

Hubble Space Telescope - Orbit

View from above orbital plane
View from above orbital plane
View from above satellite
View from above satellite

Ground track
Ground track

The orbit data is extracted from the following two-line orbital elements,

1 20580U 90037B   21216.05537894  .00000534  00000-0  21321-4 0  9992
2 20580  28.4698 110.0986 0002636 212.1540 278.7818 15.09696489518216
Epoch (UTC): 04 August 2021 01:19:44
Eccentricity: 0.0002636
inclination: 28.4698°
perigee height: 535 km
apogee height: 539 km
right ascension of ascending node: 110.0986°
argument of perigee: 212.1540°
revolutions per day: 15.09696489
mean anomaly at epoch: 278.7818°
orbit number at epoch: 51821

The dashed part of the orbit path shows where the satellite is in the earth's shadow,  

DLR